RH
89 83 79 67 68 84 86 81 86 92 92 91 89 91 90 87 87 80 77 87 91 90 95 100 101 96 94 91 90 90 87 86 86 86 90 91 89 90 92 92 93 93 91 92 92 90 92 93 91 90 91 92 91 91 91 90 87 87 88 87 88 88 87 85 81 76 79 86 88 85 80 77 77 78 73 70 76 81 82 81 80 82 79 76 77
99 90 81 73 72 80 81 82 91 96 96 96 91 87 88 89 86 75 75 90 93 92 94 97 99 98 94 90 89 90 88 89 87 79 78 81 84 84 83 86 91 93 94 94 94 93 93 93 94 94 91 90 91 90 89 89 89 91 91 90 90 90 89 87 82 79 83 87 86 81 76 72 70 75 81 82 84 86 85 84 85 85 79 71 76
101 95 86 80 80 81 80 85 92 93 95 98 92 88 89 92 93 84 83 93 95 94 94 94 95 96 95 90 86 85 85 85 83 79 81 84 89 88 84 85 88 90 90 89 90 88 87 88 92 96 93 90 90 87 87 89 89 89 89 89 89 90 90 91 89 84 84 82 80 77 73 70 64 63 75 81 77 76 78 85 89 87 83 79 77
101 98 90 83 86 88 86 88 92 94 96 95 93 91 88 90 95 94 94 97 96 97 97 93 90 87 86 85 82 82 83 86 89 92 94 96 98 96 92 91 91 90 87 88 88 87 88 87 87 89 87 87 88 86 86 85 85 83 81 80 82 87 91 90 89 87 87 85 82 80 75 71 65 62 71 74 69 71 75 82 85 81 82 80 70
99 99 98 92 89 89 88 88 88 90 92 91 92 94 92 94 96 95 98 100 97 97 98 94 89 83 81 84 87 90 91 93 96 99 100 100 100 98 94 93 95 95 95 96 95 96 97 95 94 91 84 81 80 82 85 85 89 90 87 87 88 92 97 94 90 89 90 90 88 88 84 77 70 72 77 73 66 68 71 73 75 76 82 84 76
98 99 100 91 85 89 90 85 82 84 86 87 93 96 96 96 97 96 96 97 98 98 96 94 92 91 90 89 90 95 98 97 98 100 101 100 100 100 97 97 99 99 100 100 100 100 98 96 97 95 94 87 77 82 92 92 94 99 98 98 98 97 100 100 96 93 88 85 86 91 93 90 86 82 80 75 69 68 69 69 70 72 76 80 80
98 100 98 88 85 94 95 87 82 81 81 87 97 99 97 95 95 96 94 92 94 97 97 95 93 95 95 92 91 97 100 99 100 100 100 100 100 100 99 100 100 100 101 100 100 100 97 96 93 90 92 86 83 91 92 81 77 84 87 90 97 99 98 100 99 98 93 89 91 91 88 87 88 88 85 83 77 72 70 70 69 67 69 73 75
97 101 100 96 94 96 93 87 85 83 86 95 99 98 97 96 95 94 94 93 92 96 100 98 96 98 98 95 95 98 99 100 100 100 100 101 100 100 100 101 100 101 101 98 99 96 90 88 80 73 70 68 82 87 71 56 49 54 66 77 90 95 97 101 100 100 99 98 98 94 88 86 87 89 88 87 85 79 73 69 68 67 69 73 73
98 101 100 101 100 95 88 85 87 91 96 99 96 93 94 97 98 95 96 94 86 89 98 100 99 100 100 99 98 98 98 99 100 100 101 100 100 101 100 100 100 100 97 93 96 93 87 84 70 57 53 54 67 66 52 46 42 49 61 61 65 72 79 88 92 98 102 100 100 99 98 97 96 94 90 89 90 88 81 73 72 74 72 72 72
100 101 100 101 100 98 92 88 90 95 99 98 92 90 93 98 100 98 97 90 81 85 95 99 100 100 100 97 94 98 99 98 100 100 100 100 100 100 100 101 100 98 94 90 94 96 91 85 69 53 48 47 50 48 43 37 41 61 59 39 41 49 53 61 75 89 93 94 97 98 100 101 100 100 97 96 96 94 92 87 84 81 76 74 73
101 100 100 101 99 100 99 95 94 95 98 96 93 94 97 100 100 98 97 92 89 94 96 97 99 99 98 89 83 94 100 99 100 100 100 100 100 100 100 100 98 97 98 96 99 98 82 65 53 45 41 37 35 35 32 25 34 53 43 27 34 39 41 48 62 74 77 83 95 99 100 101 100 101 100 100 100 98 97 93 89 85 80 79 78
100 101 100 101 100 100 101 99 96 94 95 96 97 99 100 100 100 98 98 97 98 100 99 99 99 99 98 91 86 95 100 100 101 100 101 100 100 101 100 100 99 97 100 100 91 75 57 42 35 31 26 23 21 19 17 15 20 27 23 23 29 31 37 41 47 57 62 70 85 95 100 100 100 101 100 100 100 100 100 96 92 89 88 86 83
95 101 100 100 101 100 100 100 96 94 96 98 100 101 100 100 100 99 100 100 100 100 99 100 100 99 100 96 93 95 97 99 101 100 100 101 100 100 100 100 99 98 100 96 73 45 32 25 18 15 11 9 9 8 8 7 7 9 8 12 15 16 22 27 36 50 59 67 75 82 93 98 100 101 100 101 101 100 101 100 98 97 97 95 91
90 100 101 100 101 100 100 100 97 96 99 100 100 100 100 100 100 99 100 99 100 100 101 100 97 96 99 99 98 97 96 98 100 101 100 100 100 100 100 100 101 99 89 69 43 23 16 11 6 7 5 5 5 4 6 4 4 10 7 3 5 7 7 11 24 37 48 62 69 73 86 96 100 100 98 100 100 100 101 100 100 101 100 100 98
87 97 100 100 101 99 99 99 98 99 100 100 100 100 100 100 99 99 99 100 100 99 98 96 91 90 94 98 98 99 98 97 98 101 100 100 101 98 96 99 96 81 54 30 17 10 8 5 5 6 4 5 5 3 5 2 6 19 16 6 8 19 18 9 21 38 45 57 66 70 83 94 95 94 94 98 99 99 101 100 100 100 100 100 100
84 89 96 100 100 99 99 99 100 100 100 100 100 99 99 99 99 98 98 98 99 98 96 95 94 94 95 96 98 100 101 98 96 97 98 98 99 97 96 94 74 43 20 11 8 5 5 5 5 5 4 5 4 4 5 3 7 17 16 8 11 34 45 33 36 52 55 61 67 69 83 93 86 77 81 93 98 98 100 100 99 99 99 99 98
84 85 94 100 100 100 100 100 100 100 101 100 99 100 99 99 99 98 99 99 100 99 97 97 97 97 97 98 100 99 98 96 91 89 88 88 91 91 85 66 35 13 8 7 6 5 5 6 5 5 5 5 4 4 5 7 10 10 11 9 14 45 73 62 46 44 47 58 69 76 88 91 82 73 76 89 97 97 98 97 96 97 96 97 97
89 90 97 101 100 100 100 100 101 100 100 100 100 101 100 99 99 99 100 101 100 98 96 97 98 98 99 99 99 99 99 97 93 90 89 90 90 76 52 28 12 10 11 10 10 9 6 6 7 6 5 5 6 5 5 8 9 7 8 9 13 40 66 60 46 42 42 55 74 85 89 87 84 85 85 91 95 93 93 94 93 94 92 92 93
91 95 101 101 100 101 100 100 101 100 101 100 100 100 99 98 98 99 99 98 98 96 94 97 99 99 99 98 99 99 97 97 100 99 90 79 64 38 15 10 14 18 19 21 26 22 16 16 15 11 8 6 5 5 7 7 6 6 8 9 12 30 49 53 58 58 47 51 72 84 85 85 85 88 91 92 92 90 90 91 90 90 90 87 89
91 98 101 100 100 101 100 100 100 100 100 100 100 100 99 97 97 98 96 93 95 94 91 94 98 98 96 97 98 98 98 98 94 79 59 44 32 17 9 12 19 21 20 26 36 36 31 31 28 21 14 9 6 6 7 7 6 7 7 9 12 26 45 54 63 72 65 61 75 85 85 85 85 87 89 87 88 91 87 84 85 89 90 87 88
91 98 100 99 100 99 99 100 99 99 100 99 100 100 96 95 97 97 95 96 98 96 93 95 97 97 97 96 91 83 77 70 53 33 20 19 18 16 15 17 24 32 30 29 34 37 38 36 30 20 12 9 8 7 7 7 8 10 11 12 12 21 40 51 58 74 82 80 85 88 84 85 86 85 85 87 90 85 69 62 73 90 94 91 93
92 96 97 98 99 99 99 99 98 99 100 99 98 96 92 91 94 94 94 95 96 97 97 95 95 96 92 86 71 49 32 23 17 13 12 11 8 10 16 15 19 29 34 35 36 39 45 40 24 11 8 9 7 6 9 7 8 20 32 32 28 33 48 61 69 76 81 86 88 86 83 83 85 85 88 92 88 72 56 49 58 80 92 91 97
92 95 97 98 99 100 100 99 99 100 99 97 94 89 87 88 87 87 89 90 92 98 93 84 87 85 69 54 41 24 13 10 12 14 13 10 8 15 24 22 23 24 25 33 38 37 43 43 29 12 7 9 7 7 9 6 8 30 52 53 50 60 69 76 82 80 79 86 87 84 84 82 84 88 89 87 82 74 71 70 70 79 89 89 93
92 96 99 100 100 101 100 100 100 99 97 95 89 85 86 85 84 86 90 91 92 91 77 64 64 58 41 29 21 15 12 10 10 11 11 8 10 19 25 24 29 30 26 28 33 35 38 39 30 15 7 10 10 7 9 9 9 25 53 65 64 75 85 84 85 84 82 86 85 82 83 82 87 94 93 91 90 89 89 90 92 92 94 95 95
93 97 100 100 100 100 100 100 99 97 95 90 85 86 86 82 84 89 91 87 80 72 59 46 37 26 18 14 11 10 11 9 9 9 8 7 8 15 21 24 27 27 25 22 25 40 49 38 21 10 8 10 9 8 9 10 9 13 40 69 71 75 89 89 85 87 84 84 84 82 82 85 92 97 98 98 95 94 92 89 92 95 94 98 98
93 97 98 98 99 100 99 98 94 93 91 84 82 85 84 81 83 85 84 76 64 54 46 37 26 17 13 10 8 10 9 8 8 7 7 7 5 9 15 24 28 21 18 15 14 30 43 31 13 7 9 9 6 9 8 8 12 7 22 62 76 77 90 90 85 86 84 83 85 81 82 91 97 98 99 99 96 94 90 82 83 90 92 94 96
91 94 96 96 97 97 98 95 90 89 88 82 81 83 82 83 83 82 79 68 55 47 41 38 36 29 20 12 9 9 7 7 8 7 8 7 6 10 10 14 19 15 15 17 15 20 24 17 9 7 10 9 6 10 7 6 13 5 15 63 87 86 91 90 85 87 85 84 86 82 85 94 98 99 99 99 99 94 86 80 80 84 88 91 95
88 92 97 96 94 94 94 92 88 88 87 82 79 79 81 82 81 81 77 63 53 50 44 44 41 29 17 10 8 8 7 8 7 6 8 7 6 11 9 8 10 9 14 23 30 37 35 23 15 10 9 9 6 9 8 7 12 5 17 68 95 86 87 87 84 85 83 83 85 84 88 94 97 99 99 99 99 90 82 81 79 79 84 90 97
91 96 99 95 94 94 94 92 89 89 87 81 75 74 78 81 81 81 74 60 55 53 47 45 35 17 11 10 9 10 9 8 10 8 8 8 8 8 8 9 8 7 15 27 41 57 58 44 31 17 9 9 7 8 8 6 11 5 16 66 95 86 84 85 81 82 81 80 83 84 87 92 93 92 94 96 90 78 75 78 78 81 88 94 100
96 99 99 96 96 97 95 92 89 86 82 79 75 75 78 81 81 79 72 63 61 58 50 42 30 18 19 21 18 17 15 14 15 12 9 10 10 9 9 9 7 7 14 24 38 53 58 54 41 19 9 10 7 9 9 7 13 12 17 57 88 86 84 84 79 79 78 76 81 83 84 87 86 85 90 90 78 68 69 72 71 80 93 99 101
94 95 95 94 93 93 89 85 83 80 77 76 75 76 79 81 80 77 71 64 61 59 51 43 37 37 40 39 36 34 29 24 19 15 13 11 9 10 11 10 10 9 9 16 31 44 52 57 42 15 11 15 10 10 12 9 15 22 30 60 83 83 82 81 77 75 72 73 80 82 80 81 80 84 90 84 71 67 67 63 64 79 94 100 100
86 87 87 87 87 86 83 80 78 78 77 75 75 78 80 80 78 74 69 62 59 58 53 47 47 49 48 46 47 46 42 39 34 27 21 17 14 14 15 15 15 14 10 12 24 40 61 76 59 24 13 17 13 11 14 13 17 25 41 67 82 81 80 78 73 71 68 71 79 80 78 77 78 85 88 77 67 67 63 61 73 89 96 98 99
82 83 84 86 86 85 84 82 80 78 76 75 76 78 79 78 76 72 67 61 58 55 51 48 48 49 49 48 48 48 47 45 41 34 31 30 26 20 17 18 16 13 12 12 17 33 60 86 81 44 17 17 17 13 14 17 19 28 49 72 81 81 78 74 72 69 66 71 77 78 76 74 77 86 83 71 67 64 61 70 88 98 97 94 96
84 85 87 91 91 88 86 82 79 77 75 74 75 77 77 76 75 71 65 58 54 51 49 49 49 49 48 48 46 47 48 46 41 39 39 35 30 27 29 32 27 22 23 23 19 23 43 78 95 67 27 16 19 16 15 19 23 33 55 72 79 81 77 70 71 69 65 68 74 75 75 72 78 86 76 66 67 63 65 84 99 100 98 94 94
86 89 91 92 90 86 83 79 76 76 74 73 75 75 74 74 73 68 60 54 52 50 48 49 49 47 47 47 46 45 47 47 45 45 41 31 31 39 45 46 42 38 39 37 28 24 31 56 88 86 47 18 17 19 17 19 25 36 55 71 75 77 75 69 69 69 64 65 70 74 75 73 78 81 66 60 69 68 74 94 102 99 99 94 92
85 88 90 89 85 82 80 76 75 76 74 73 74 73 70 69 67 61 55 51 49 49 50 50 49 48 48 47 46 46 48 48 47 46 40 32 38 48 47 46 47 44 42 41 38 35 30 30 54 80 67 31 14 19 20 19 24 31 48 68 74 72 73 70 67 67 63 61 66 71 74 75 75 71 61 58 67 72 82 99 102 97 96 90 84
82 85 86 84 81 79 78 75 74 74 73 73 73 68 64 61 58 53 49 49 49 49 51 51 49 49 48 47 47 49 50 50 51 50 42 38 49 56 54 55 57 54 52 51 47 42 31 16 17 45 66 49 19 13 18 20 23 26 37 61 74 72 73 71 64 64 61 57 61 66 68 71 69 63 59 61 66 71 82 98 102 96 90 82 78
80 84 84 81 78 78 78 76 74 73 73 73 68 61 56 52 50 48 47 47 48 49 50 50 49 49 49 49 50 50 51 52 52 48 42 44 51 54 55 58 58 58 61 61 60 57 47 29 13 13 40 53 31 14 16 18 23 25 29 52 71 71 73 74 64 58 58 56 58 62 64 68 67 63 63 69 73 72 76 89 96 91 84 78 73
78 81 81 79 78 78 77 76 74 73 72 69 62 54 50 47 46 46 47 47 48 49 50 50 49 50 51 52 52 52 54 54 51 47 47 51 55 56 60 62 57 57 59 57 59 64 58 52 41 22 20 33 30 18 15 16 21 23 23 42 62 64 71 82 73 57 55 57 56 57 64 68 68 66 67 72 76 73 71 79 86 81 79 79 73
76 79 78 77 77 77 76 74 73 73 71 63 55 49 45 45 45 45 46 47 48 49 50 50 51 53 55 56 57 56 56 53 48 48 49 51 54 59 63 62 55 53 57 57 58 63 62 62 66 54 32 24 27 27 20 15 19 22 20 31 48 51 57 76 81 64 54 56 55 55 63 70 71 71 70 71 75 74 71 74 78 75 75 80 83
76 77 75 76 78 76 74 72 71 71 66 57 50 46 45 45 45 44 46 48 49 50 51 52 54 56 57 58 58 57 55 51 44 45 52 54 57 62 64 60 56 53 58 65 66 66 67 66 70 73 61 44 39 37 28 18 18 20 20 24 37 43 43 59 80 75 58 56 59 59 66 73 73 73 71 68 71 73 71 72 74 73 71 75 82
74 75 74 76 78 75 71 69 69 67 61 52 47 46 46 46 45 46 49 50 51 51 52 53 53 54 59 61 56 49 47 46 42 44 50 52 56 64 66 61 61 61 63 69 67 63 65 65 63 69 72 65 55 42 27 19 18 18 18 19 25 33 34 50 77 81 65 62 67 66 69 73 71 70 68 66 68 71 69 69 70 69 68 69 74
72 74 75 76 75 71 67 66 66 62 55 50 47 47 47 46 47 51 52 51 52 52 51 52 52 56 61 55 42 37 40 43 47 54 57 56 56 63 67 65 65 65 62 63 62 58 58 59 57 60 64 66 66 52 30 19 18 17 17 17 19 25 30 44 70 79 71 70 73 71 71 71 68 66 63 61 65 67 65 67 70 67 65 65 68
73 74 75 74 69 66 65 64 63 58 52 48 48 48 48 49 51 54 53 53 54 52 51 55 57 60 59 42 27 33 42 47 58 65 64 64 64 62 62 63 62 57 52 52 53 52 53 53 54 58 59 59 64 62 43 24 16 18 19 17 20 28 31 39 64 79 77 76 78 74 71 69 64 62 60 59 62 63 61 64 69 68 63 62 64
74 73 72 70 65 64 65 62 59 56 51 49 49 48 50 53 54 55 55 53 54 54 56 59 60 59 55 44 40 49 54 57 67 68 62 65 68 64 60 59 56 52 50 48 47 46 49 52 53 57 61 60 60 60 47 28 17 19 20 19 24 29 28 39 68 84 77 73 74 70 67 66 63 60 60 60 60 59 57 60 67 68 62 60 63
74 72 69 67 64 64 64 61 58 55 50 49 50 50 52 56 56 56 56 54 55 59 60 59 59 57 55 54 58 62 61 63 68 66 61 63 63 59 57 56 54 53 50 48 47 46 48 51 53 54 58 60 60 57 42 24 18 22 21 20 25 23 20 41 73 81 70 65 65 61 62 63 60 58 58 57 56 55 54 57 64 66 62 59 61
72 69 66 64 63 63 63 60 58 55 52 51 51 50 53 58 57 55 55 55 58 62 61 57 59 59 57 58 62 62 61 64 65 61 57 56 56 56 56 55 55 56 53 51 50 49 49 52 54 54 54 56 58 54 38 21 18 23 22 22 27 24 24 47 73 73 62 60 57 54 57 57 54 55 55 54 53 52 51 55 60 64 62 59 59
69 67 63 62 63 62 61 61 58 55 53 51 51 51 55 58 56 53 55 59 61 62 61 59 60 60 59 60 62 60 57 59 62 59 53 50 53 55 54 55 57 58 59 60 58 55 54 57 59 55 50 54 58 50 33 20 19 23 24 25 30 32 36 53 67 63 57 58 56 52 53 51 50 52 52 50 50 50 51 53 58 62 61 57 57
67 65 63 63 63 61 61 62 58 54 53 52 51 52 55 56 55 55 58 63 63 62 63 63 62 61 61 61 59 56 55 57 59 58 57 56 55 56 60 61 52 40 39 49 60 60 51 53 66 63 46 47 55 42 25 21 22 23 25 27 33 41 47 54 59 56 54 57 56 53 52 49 48 50 51 49 48 50 50 50 55 59 58 55 57
67 66 64 63 63 62 62 61 57 53 54 53 50 52 56 57 56 58 63 65 63 63 65 65 62 60 61 62 56 51 56 60 56 55 59 56 46 48 60 60 42 24 19 25 36 40 29 32 58 63 38 27 35 30 21 22 23 21 24 28 34 46 54 55 55 53 52 54 54 52 50 48 46 49 51 49 47 49 49 48 53 58 56 54 58
67 65 63 63 63 63 63 61 56 54 53 51 50 54 59 57 56 61 67 64 59 62 67 66 62 60 60 60 56 51 56 61 55 52 55 49 34 30 37 36 26 21 22 20 21 25 22 21 36 42 27 17 23 24 22 23 22 21 23 26 33 47 56 55 54 53 52 51 49 48 49 48 47 49 50 49 50 53 51 49 54 57 54 54 58
Wind_Speed
20 17 17 18 16 13 12 12 13 13 12 11 10 8 9 10 10 9 8 6 6 7 7 9 8 8 9 8 7 6 5 4 3 4 4 4 4 4 3 2 2 1 1 0 1 1 1 3 4 4 4 5 5 5 6 6 7 7 8 8 8 9 10 11 12 13 14 14 15 16 17 16 15 15 15 14 14 13 13 14 15 16 16 16 17
19 20 20 18 18 16 13 14 15 13 11 11 11 10 10 11 11 11 9 7 6 7 8 9 8 8 8 6 6 6 5 3 2 3 4 4 4 3 2 2 2 1 2 3 4 4 3 3 3 4 5 5 5 6 6 6 6 6 6 7 7 8 9 10 13 13 12 13 16 17 16 14 12 13 14 13 12 13 14 14 15 16 17 17 18
18 20 22 20 19 18 17 17 16 15 13 12 11 10 10 10 11 11 10 7 6 6 7 8 8 8 7 5 4 4 4 4 2 2 2 3 3 3 2 3 3 4 5 5 6 6 5 5 5 7 8 8 9 9 9 8 8 8 8 8 8 8 8 8 11 12 12 14 15 16 15 15 14 10 9 11 14 16 16 14 15 16 17 17 18
19 19 21 22 21 20 20 20 18 16 14 13 11 10 10 9 8 9 8 6 6 6 7 7 6 6 5 5 4 3 4 4 4 3 3 4 4 4 4 4 5 7 7 6 6 6 7 6 6 8 10 10 11 11 12 11 11 12 12 12 12 12 11 10 8 8 11 13 13 15 15 14 13 10 12 16 16 15 15 14 16 19 18 18 19
19 19 19 21 22 21 22 20 18 15 14 12 9 9 10 9 9 8 7 7 7 7 7 6 5 4 4 5 6 6 6 4 4 3 4 4 5 6 6 6 6 6 7 7 7 8 9 9 7 7 7 9 10 10 11 11 11 12 12 13 13 13 14 14 11 9 10 11 11 15 13 11 14 16 19 20 16 13 14 15 17 18 18 19 20
19 19 19 21 22 20 20 19 17 16 16 14 10 10 10 9 9 8 8 8 8 7 6 6 5 5 5 6 6 5 4 2 2 4 4 4 6 8 7 7 7 7 9 9 10 11 11 11 9 7 6 8 8 8 8 9 10 10 11 11 11 11 12 13 13 11 11 10 10 13 12 12 18 21 21 20 19 18 17 16 17 17 18 19 19
19 18 18 22 22 20 20 21 19 17 17 16 14 11 9 7 7 7 7 8 8 6 5 5 4 4 5 4 3 2 3 4 6 7 7 7 8 8 7 7 8 9 11 12 12 13 12 10 9 7 6 6 6 6 6 7 7 7 8 8 8 8 9 10 11 11 11 9 9 12 13 13 16 18 20 21 22 22 19 18 18 17 17 17 18
19 18 17 20 21 21 22 21 19 18 19 18 14 11 9 7 8 7 7 6 6 5 5 5 4 5 5 4 4 3 4 7 8 8 9 8 7 7 7 8 9 11 12 11 9 8 7 6 5 5 4 4 5 4 4 5 4 4 5 5 5 5 6 7 9 10 11 11 11 12 13 13 14 16 18 20 22 24 23 21 18 17 18 18 19
17 18 18 19 19 21 21 19 19 21 21 16 12 12 11 10 9 8 7 6 6 6 6 6 5 5 5 4 3 2 3 4 4 5 6 5 4 6 7 7 10 11 9 5 4 5 5 5 6 7 7 7 6 4 4 6 6 6 7 7 6 5 5 6 7 8 10 11 12 12 12 13 14 15 16 17 20 22 23 21 20 20 21 21 19
17 18 18 18 19 20 20 19 21 23 18 13 12 13 12 10 9 7 6 6 6 7 7 7 6 5 5 5 3 2 2 1 2 4 4 2 4 6 7 7 7 6 4 5 6 6 6 7 7 8 9 8 7 6 6 7 7 7 7 7 7 6 6 5 5 7 8 9 10 11 12 13 14 15 16 18 19 20 22 23 23 23 23 23 20
18 18 17 17 19 19 20 21 22 20 16 13 13 12 10 9 8 7 7 6 5 6 6 6 6 6 5 5 4 3 2 1 2 4 4 2 3 4 4 3 2 3 5 6 6 6 7 9 9 10 9 9 8 8 8 9 8 7 8 8 8 8 7 6 6 7 7 7 8 9 10 11 13 14 16 18 19 20 22 24 24 23 24 24 22
20 19 18 18 18 18 20 22 22 19 16 15 12 10 9 8 8 7 7 7 6 6 6 6 6 5 5 5 4 3 2 2 3 3 4 3 2 1 2 3 4 5 5 6 7 9 10 10 10 10 10 9 9 9 9 10 9 8 9 9 9 8 8 8 7 8 8 8 9 9 9 10 10 12 14 15 17 18 20 22 23 23 24 25 24
21 19 18 19 19 19 19 21 22 18 15 13 11 10 9 9 9 8 8 7 6 6 6 6 6 5 5 4 4 4 4 4 5 5 5 5 4 4 5 5 6 6 6 6 9 11 11 11 11 10 10 10 10 10 10 10 10 11 11 10 10 10 10 10 9 9 9 9 10 10 10 10 10 11 13 14 15 16 18 20 22 23 24 25 25
20 19 19 18 19 20 20 20 20 16 13 12 11 10 9 9 8 8 8 7 7 6 6 6 5 5 5 5 5 5 5 6 6 6 6 6 6 5 6 6 6 6 7 8 11 12 12 11 11 11 11 11 11 11 11 11 12 13 14 14 14 15 16 15 13 13 13 11 12 12 11 11 12 12 13 14 15 16 17 19 22 24 25 25 26
20 19 19 18 19 20 20 20 17 14 13 11 11 10 9 9 9 8 8 7 6 6 5 5 4 4 5 5 5 5 5 6 7 7 7 7 6 6 7 6 6 8 10 11 11 11 12 12 12 12 12 13 13 13 13 14 15 15 16 16 16 17 17 18 16 16 16 14 14 13 13 13 13 13 14 14 15 16 16 18 21 24 27 27 26
21 20 19 19 19 19 18 18 16 14 13 12 11 11 10 9 9 8 8 7 6 6 5 5 5 5 6 6 6 6 6 6 7 7 7 7 7 7 7 7 8 11 12 12 12 12 13 14 13 14 15 15 15 16 16 17 17 17 17 17 17 17 16 17 17 15 15 14 14 14 13 13 14 15 15 14 14 15 16 17 18 20 24 27 27
22 21 20 19 19 18 17 16 15 14 13 13 12 11 10 10 9 8 8 7 7 6 6 6 7 7 8 8 8 8 8 8 8 9 8 8 8 7 8 10 12 13 14 13 13 13 14 15 16 16 16 16 17 18 18 19 19 19 19 19 18 17 14 14 16 16 15 15 14 14 13 12 14 16 15 15 15 15 16 17 17 17 20 23 26
21 21 20 19 18 18 17 16 15 15 14 14 13 12 11 10 8 8 9 8 7 5 5 6 8 8 8 9 8 8 8 8 9 9 8 8 8 9 11 14 14 14 14 14 14 14 15 16 17 18 18 18 18 19 20 20 20 20 20 20 20 17 14 14 16 17 16 15 14 14 13 13 14 16 15 15 15 15 16 17 17 17 18 20 22
24 21 19 18 19 18 18 17 17 16 15 14 13 12 11 9 9 9 8 7 6 5 6 7 8 8 8 9 9 9 9 9 10 9 9 10 11 13 15 15 15 14 14 14 14 14 15 16 17 18 18 18 19 20 20 20 20 21 21 21 20 18 16 15 16 16 16 16 15 14 13 14 15 15 15 16 16 16 17 17 18 18 18 19 20
25 22 20 19 20 19 18 18 18 17 15 14 13 12 12 10 9 8 7 7 7 7 8 8 9 9 9 10 10 10 10 10 11 12 13 14 14 15 16 15 15 14 14 14 14 13 15 16 16 17 18 19 19 20 20 20 21 21 21 21 20 19 16 15 15 15 16 16 15 14 15 15 16 16 16 17 16 17 18 19 19 19 18 20 21
24 22 22 22 21 19 19 18 18 17 15 14 13 12 12 10 10 9 8 9 9 9 9 9 10 11 11 11 11 12 12 12 14 15 16 17 16 16 15 15 15 14 13 14 14 14 15 15 16 16 18 19 19 20 20 21 21 21 21 21 21 19 17 16 15 14 15 15 15 14 15 16 17 17 17 18 17 18 20 21 20 19 19 20 21
25 24 24 24 22 21 20 19 18 17 15 15 14 13 12 11 10 10 10 10 10 10 11 11 12 11 11 12 13 15 16 16 18 18 17 17 17 17 16 15 15 14 13 13 13 14 14 14 15 17 18 18 19 20 20 21 21 20 20 20 21 20 18 16 16 15 14 14 14 14 15 16 17 17 17 17 18 20 22 23 22 21 21 21 22
26 27 26 24 23 21 20 19 18 17 15 15 14 13 13 12 11 11 12 12 12 12 12 13 13 12 13 14 15 17 18 17 18 17 17 18 17 16 16 15 14 14 14 14 13 13 14 13 15 16 17 18 18 19 20 20 20 19 18 18 19 18 17 15 14 14 15 15 15 15 15 17 17 17 17 18 19 21 22 22 23 24 23 24 24
27 28 26 23 22 20 19 19 18 16 16 16 15 14 13 12 11 13 14 14 14 13 14 15 14 14 16 16 17 18 18 18 18 17 17 18 17 16 15 14 14 13 13 14 13 14 14 13 14 16 17 17 18 19 19 19 19 19 16 16 17 15 14 14 14 14 15 15 15 16 16 17 17 17 18 19 19 21 22 21 22 24 24 24 25
28 27 26 24 23 21 20 19 18 17 17 17 16 15 14 13 13 15 15 15 15 15 15 16 16 17 18 18 18 18 18 18 18 17 17 17 17 16 15 14 13 13 13 13 13 14 13 13 14 16 17 17 18 18 19 19 19 19 17 15 16 15 13 13 14 14 14 15 15 16 16 17 17 18 19 19 19 21 22 23 24 24 23 23 25
28 27 27 26 25 24 22 20 20 19 19 18 17 16 15 15 16 16 16 16 16 16 16 17 17 18 19 19 19 18 18 17 17 16 16 16 16 15 14 14 13 13 13 13 14 14 12 12 14 16 17 17 18 18 18 19 19 18 17 16 16 16 13 13 14 13 14 15 15 16 16 17 17 19 21 21 21 22 24 27 29 27 25 25 27
28 28 27 25 25 26 23 22 21 21 20 19 18 17 17 18 17 17 16 17 17 17 18 19 19 19 19 19 19 18 17 16 16 16 15 15 15 14 14 14 13 13 14 13 14 14 13 14 15 17 18 18 18 19 19 20 19 18 18 16 15 14 13 14 14 13 14 15 15 16 16 16 17 19 20 20 20 23 28 31 31 30 30 30 29
30 30 27 25 27 27 25 23 23 22 21 20 19 18 18 19 19 17 17 17 18 18 20 20 19 19 19 19 18 17 16 16 15 16 15 15 15 14 13 13 13 14 14 14 14 14 14 15 16 18 19 19 19 20 20 20 19 18 17 15 14 13 13 13 14 13 14 15 16 16 15 16 17 19 22 21 22 28 33 34 33 32 32 31 29
30 29 27 28 31 29 26 26 25 23 22 20 19 19 19 20 19 17 17 17 18 19 20 19 19 20 20 19 18 17 17 16 16 15 15 15 15 14 14 14 14 14 15 14 13 12 12 14 17 18 19 19 20 21 21 21 19 18 16 13 13 13 13 13 13 14 14 15 16 16 16 17 19 22 25 25 27 34 37 36 35 33 30 28 27
29 29 28 29 30 29 27 26 25 23 22 21 21 21 21 20 19 18 17 18 18 19 19 19 19 19 19 18 17 17 17 17 16 16 15 15 15 15 15 15 15 15 15 14 14 13 13 14 17 19 20 20 21 21 21 19 18 17 16 14 12 12 12 12 14 14 14 16 16 17 17 18 21 23 23 25 31 36 37 36 35 31 28 27 28
30 30 30 29 29 28 27 26 25 24 23 22 22 23 22 21 20 19 18 18 19 19 19 19 19 18 17 16 16 16 16 16 16 16 16 16 16 16 15 15 15 16 16 15 15 15 15 15 17 20 21 21 21 21 20 19 17 16 16 15 12 12 12 12 14 14 15 16 16 17 19 20 22 24 23 27 35 38 37 36 35 31 28 28 29
32 31 30 30 29 29 28 27 26 25 24 23 24 23 22 21 20 19 19 19 19 19 19 19 18 17 16 16 16 15 15 16 16 16 17 16 16 16 16 16 16 17 17 16 16 15 14 13 15 19 21 21 21 21 20 19 17 16 17 15 12 12 11 12 14 14 15 16 16 17 20 21 23 24 25 32 38 38 38 37 33 30 28 29 29
32 32 31 30 30 29 29 28 27 25 24 23 23 23 22 22 21 20 20 20 20 20 19 19 18 17 16 16 16 15 16 16 16 16 16 16 16 17 17 17 17 18 17 18 17 16 14 11 11 16 21 21 21 22 22 19 18 17 17 15 11 11 12 12 13 14 15 16 17 18 20 23 24 24 28 35 38 39 39 35 29 28 29 31 31
32 33 32 30 30 29 29 28 26 25 24 23 23 22 22 22 21 21 21 21 20 20 20 19 18 17 17 16 16 16 16 16 16 16 16 16 17 17 17 16 16 17 17 17 18 17 16 13 9 12 19 22 21 23 23 20 18 18 18 16 12 11 12 13 13 14 15 16 17 18 20 23 24 24 29 34 36 38 38 31 27 29 31 34 32
34 34 33 32 31 30 29 28 26 26 25 24 22 22 22 22 22 22 21 21 21 21 20 19 18 17 17 17 16 17 17 16 16 16 16 17 17 16 15 15 14 15 15 15 17 17 16 14 9 8 15 21 22 22 23 23 20 18 19 17 13 11 12 13 13 14 15 15 17 18 20 23 24 24 29 34 37 40 36 28 28 31 32 35 33
34 34 33 33 32 31 30 29 27 26 25 24 23 24 23 22 22 22 22 22 22 21 20 19 19 18 17 17 17 17 17 16 16 16 16 17 17 15 14 14 14 14 15 15 15 16 16 15 13 9 11 19 22 22 23 24 23 20 19 16 14 12 12 13 14 15 15 16 18 20 20 24 26 26 28 31 37 41 35 27 28 32 34 38 37
32 33 32 32 31 31 31 29 27 26 25 25 25 24 24 24 23 23 23 22 22 21 21 20 19 18 17 17 17 17 16 16 15 15 16 16 16 14 13 12 12 12 12 13 13 14 15 17 17 14 11 14 21 23 22 23 24 23 20 17 14 14 13 13 15 15 15 17 21 23 23 26 29 29 27 29 35 40 36 28 28 33 38 41 41
31 32 32 32 32 31 30 28 27 26 26 26 25 25 25 24 24 24 23 23 22 21 21 20 19 18 18 17 16 16 16 15 15 15 16 15 15 14 13 12 11 11 10 10 10 10 12 15 18 18 15 13 19 23 23 23 23 23 22 19 16 15 14 13 15 16 15 17 20 23 25 27 29 29 27 28 31 36 37 31 28 35 42 44 43
32 33 33 33 32 31 29 28 27 27 26 26 26 26 26 25 24 24 23 23 22 21 21 20 19 19 18 17 16 16 15 15 15 15 15 14 13 12 11 10 9 9 9 8 8 8 9 11 14 18 19 17 19 22 23 23 23 23 23 20 17 17 16 13 14 16 16 16 18 21 23 26 28 28 28 28 29 33 37 33 31 39 46 45 43
33 33 33 33 32 31 29 28 28 27 27 27 26 26 26 25 25 24 23 22 22 21 21 20 20 19 17 17 16 16 15 15 15 16 14 13 13 12 11 9 8 8 8 7 7 7 8 9 10 12 16 19 20 22 23 23 23 23 23 22 19 19 18 13 13 16 17 17 18 20 21 25 28 30 30 28 26 30 34 33 34 40 45 45 44
34 34 33 33 31 31 30 28 28 28 27 27 27 27 26 26 25 24 23 23 22 22 21 21 19 18 18 17 17 16 16 15 15 15 14 12 12 11 10 9 8 8 8 7 6 5 6 7 7 8 12 16 19 21 22 22 22 21 22 22 21 20 19 15 12 15 17 17 18 20 22 26 29 31 32 30 26 28 32 33 33 38 41 43 44
35 35 34 33 31 30 29 28 28 28 28 28 27 27 27 26 25 24 24 23 23 22 22 21 19 19 18 17 17 18 17 16 15 14 13 12 11 10 9 8 8 7 7 7 5 5 5 5 5 6 8 12 16 19 20 21 21 20 21 22 21 20 20 17 13 14 18 18 18 19 23 28 31 30 32 33 29 28 31 32 32 36 39 40 41
37 37 35 33 32 31 30 29 29 28 28 28 28 28 27 26 25 24 24 24 23 22 22 21 19 19 18 18 19 19 18 17 15 13 12 10 10 9 7 7 6 5 5 5 4 5 5 4 5 5 6 8 11 16 19 20 19 20 20 21 22 22 22 18 13 13 18 18 17 20 24 29 31 30 31 33 31 29 31 31 31 34 36 36 38
37 37 35 33 32 32 31 30 30 28 28 28 28 28 28 26 25 25 24 24 23 22 22 21 19 19 18 19 19 18 17 16 13 11 10 9 8 7 6 5 5 4 4 4 4 4 4 4 5 5 5 7 8 11 16 19 19 20 20 21 23 23 22 19 15 14 17 17 17 20 25 29 30 30 30 30 29 30 31 32 31 32 34 34 36
36 36 36 34 33 33 32 31 30 28 28 28 28 28 28 27 26 25 25 24 23 22 21 20 19 19 19 18 17 15 14 13 12 10 9 8 7 6 5 4 5 4 3 3 3 4 4 4 5 5 5 6 7 9 14 17 19 20 20 21 22 22 21 19 16 15 16 16 18 21 25 27 28 29 29 29 29 29 31 32 31 31 32 33 36
36 37 37 35 34 34 33 32 30 28 28 27 27 28 28 27 26 25 25 24 23 22 21 20 19 18 18 16 15 13 13 12 11 9 8 7 6 5 5 4 3 3 3 3 3 3 3 4 4 5 5 5 6 9 14 17 19 19 20 21 22 22 22 19 16 15 16 19 21 23 24 25 26 27 28 29 29 29 30 32 31 31 32 33 35
39 39 37 35 34 34 33 32 30 29 28 27 27 27 27 26 26 25 24 23 22 22 21 20 19 18 17 15 14 13 12 12 10 9 8 7 6 5 4 4 3 2 2 2 2 2 3 3 4 5 6 5 6 9 14 17 18 19 20 21 22 23 23 20 17 17 18 21 23 23 23 24 25 26 27 27 28 29 29 31 31 30 31 33 35
40 39 37 35 34 34 34 33 31 29 28 28 28 27 27 26 26 25 24 23 23 23 21 19 18 17 16 15 14 14 13 11 10 9 8 6 6 4 4 3 3 3 3 2 2 2 2 3 4 5 5 5 6 9 13 16 18 19 21 21 22 23 23 20 18 19 20 20 21 21 22 23 24 25 26 26 27 28 29 30 30 30 31 32 34
41 40 38 36 36 36 35 34 32 30 29 29 29 28 27 27 26 26 25 24 24 23 20 19 18 17 16 14 14 14 12 10 10 10 8 7 8 7 5 4 5 5 6 6 4 2 1 1 2 4 4 5 5 8 12 15 17 18 20 20 21 23 22 20 19 20 19 19 19 19 20 22 24 25 25 26 27 28 29 30 30 30 31 32 33
41 40 37 36 35 36 36 34 32 30 30 30 30 28 28 28 27 26 25 25 25 23 20 18 17 16 15 15 13 13 12 10 10 10 9 9 11 11 9 6 4 4 4 5 5 3 1 2 2 1 3 4 5 8 11 13 15 16 17 18 19 20 20 20 20 20 19 18 18 20 20 21 23 24 24 26 27 27 28 30 30 30 31 32 32
43 40 37 35 35 36 36 34 32 31 30 31 30 29 28 28 27 26 25 25 26 24 20 18 17 16 16 16 13 13 12 11 10 10 9 8 8 9 7 4 2 1 1 1 1 1 1 2 2 1 3 5 7 8 10 12 13 15 15 15 17 19 20 20 20 20 21 19 18 20 20 20 22 23 23 25 26 26 27 29 29 29 31 33 33
Wind_Direction
132 138 129 132 145 147 139 136 139 145 151 154 160 157 147 149 157 159 151 154 176 168 136 121 116 111 113 113 107 105 100 98 120 151 147 145 147 135 124 124 102 79 74 8 286 283 306 317 312 311 310 305 306 304 302 306 310 312 314 315 315 314 316 314 313 317 320 318 315 312 310 309 305 299 304 308 303 297 292 288 287 287 287 289 293
129 136 135 137 145 139 129 141 145 139 144 148 147 146 147 156 161 159 157 164 175 164 136 127 121 116 119 117 111 106 104 114 150 182 176 161 161 162 164 179 168 181 221 225 237 238 237 252 270 275 269 268 271 269 273 280 285 291 301 309 313 313 315 314 315 321 321 315 314 312 311 311 303 289 289 298 300 296 293 289 284 286 293 300 303
131 136 139 141 146 140 132 141 147 142 143 139 136 145 152 156 152 149 155 160 152 140 133 130 125 122 117 109 115 122 126 125 101 102 114 122 158 197 242 239 243 265 264 259 263 266 264 254 246 252 255 255 257 262 268 271 275 281 290 300 301 302 309 313 313 317 317 315 316 313 312 313 308 298 289 297 306 303 297 287 281 285 290 295 295
137 139 143 146 149 147 142 140 142 144 143 139 141 144 142 145 143 139 142 140 127 116 116 118 117 117 108 94 82 74 92 83 65 98 133 153 194 234 274 272 270 281 285 283 283 287 293 288 274 265 263 264 268 274 277 276 279 283 285 289 294 299 300 294 295 308 314 317 318 312 310 307 305 314 314 307 308 302 290 282 285 291 292 295 297
142 139 139 145 151 153 152 148 145 149 149 143 149 158 149 143 144 145 140 130 120 112 107 102 96 90 79 66 55 56 67 57 55 119 168 194 233 269 292 289 278 279 281 283 285 288 292 296 298 294 288 280 276 280 283 281 284 289 288 288 295 304 304 299 296 301 303 303 309 310 311 307 303 312 315 309 306 301 293 289 291 292 289 293 297
143 139 138 147 152 151 151 153 155 159 161 154 155 168 164 150 141 143 145 135 122 114 108 103 94 85 67 44 41 65 94 111 140 157 179 220 262 278 282 277 272 271 276 284 290 290 291 294 291 295 310 302 293 291 292 288 285 291 297 296 299 298 299 305 308 306 300 297 300 301 299 298 301 307 309 307 305 303 299 295 293 292 288 290 292
144 143 142 148 152 148 147 153 157 162 164 161 156 154 158 157 136 127 139 140 125 107 97 104 96 86 88 73 68 110 158 211 219 213 227 253 267 267 259 263 271 277 284 289 291 289 292 296 295 302 318 325 337 333 315 308 296 292 298 303 308 302 298 308 313 309 304 299 290 283 282 285 293 302 304 303 305 303 302 300 298 296 293 291 290
146 146 145 147 149 149 149 149 152 157 158 158 155 144 141 140 127 131 149 141 117 91 80 95 94 83 95 107 119 160 212 236 239 236 245 253 258 261 258 266 280 289 293 293 295 302 310 318 334 357 12 31 26 358 337 352 352 336 329 327 327 322 315 314 314 311 308 305 295 284 283 287 294 299 299 300 303 302 301 302 301 298 294 294 293
145 145 145 144 144 148 151 148 150 157 157 157 154 145 138 126 122 144 157 133 113 103 89 85 85 84 87 95 105 130 208 230 236 238 245 238 243 269 279 288 296 300 305 319 358 15 18 17 33 45 52 64 57 30 21 22 18 12 4 358 351 339 323 313 310 312 313 309 306 307 307 306 306 304 304 307 308 307 306 306 307 305 301 299 297
142 142 141 143 147 151 156 155 158 163 161 157 152 145 141 127 120 131 128 115 112 106 93 79 75 80 84 85 89 89 102 128 181 210 219 209 240 267 287 298 301 311 346 39 43 37 37 40 52 58 58 64 62 52 37 26 25 21 11 5 2 355 345 336 323 323 324 312 310 321 324 319 317 315 317 319 315 316 316 313 313 311 309 307 304
143 141 139 145 151 155 160 160 163 166 160 154 148 142 137 123 117 117 107 105 101 90 85 78 72 76 78 76 78 86 96 103 161 196 196 199 251 273 291 298 331 31 44 51 40 39 53 60 67 68 64 63 59 53 40 32 36 30 13 8 7 3 358 356 348 339 334 327 331 339 334 326 324 322 320 320 319 318 316 314 313 313 311 309 308
148 146 143 146 148 150 156 158 161 165 160 155 146 136 128 116 113 110 98 92 88 81 79 75 71 72 71 65 70 85 104 108 123 150 161 170 188 104 78 70 66 61 54 49 48 61 72 73 72 69 64 58 50 47 42 35 38 32 20 15 11 5 2 358 356 349 340 339 345 347 339 331 328 323 319 319 319 316 313 311 310 312 311 308 307
155 152 149 151 153 152 154 155 158 161 157 149 140 130 123 115 110 104 97 92 86 81 77 78 76 73 71 68 72 86 99 102 109 122 140 149 133 109 94 79 73 66 53 53 66 75 77 72 67 62 58 54 46 45 45 39 42 39 29 26 20 16 14 6 360 355 348 346 348 346 342 342 339 330 324 322 319 317 316 312 311 311 309 307 307
161 157 154 155 157 156 156 158 160 158 147 141 136 131 123 117 112 104 98 92 88 85 81 79 72 68 77 80 82 93 102 111 118 118 122 126 123 118 103 86 75 68 65 74 81 80 73 65 63 60 57 56 52 52 52 46 48 46 36 34 33 30 26 20 13 8 4 360 356 352 350 350 346 335 331 331 326 323 321 318 317 314 309 308 307
167 162 158 158 157 158 160 160 158 151 143 141 136 130 125 121 116 109 103 97 95 94 87 80 65 66 83 89 95 98 101 117 123 112 106 109 112 111 101 85 79 84 87 87 84 80 75 68 65 63 61 61 58 56 56 52 52 49 41 38 40 38 33 29 27 19 13 10 4 1 357 350 346 340 339 339 332 326 324 321 321 319 315 313 311
174 168 162 159 157 157 158 156 152 147 143 141 137 133 129 125 120 114 109 104 104 103 93 85 78 83 91 93 97 97 95 107 114 110 109 106 101 99 95 93 97 98 95 89 83 80 80 75 70 66 63 62 61 58 57 55 54 52 45 40 44 42 32 28 29 24 18 15 10 9 5 352 342 339 340 342 337 332 329 325 324 322 319 316 314
175 172 165 159 158 156 153 152 150 146 144 142 139 136 130 126 123 119 115 112 111 103 89 88 90 92 94 93 95 97 99 104 109 110 109 102 96 93 96 104 108 102 96 91 85 81 81 78 72 68 64 62 62 60 59 57 55 53 48 43 44 42 28 21 25 25 23 19 13 10 7 355 344 342 344 346 343 338 333 329 327 325 320 317 314
171 169 165 160 161 158 152 151 147 144 145 142 140 137 130 126 125 123 121 117 111 101 91 94 97 95 94 97 97 95 96 99 102 104 100 98 102 106 109 110 107 101 96 92 86 81 79 77 72 68 65 62 61 61 59 57 54 52 50 45 45 43 31 23 24 23 22 20 15 9 4 354 347 348 348 347 347 342 335 332 329 326 320 316 314
167 165 164 162 162 159 152 149 146 143 144 142 140 136 130 128 128 126 121 115 110 108 106 103 101 100 98 99 98 96 97 99 99 100 102 105 111 116 114 109 104 101 98 92 85 80 76 72 69 66 63 60 59 59 57 56 54 51 49 45 43 41 33 27 23 18 17 20 17 11 4 356 352 354 351 347 349 343 337 335 330 327 323 316 314
164 162 162 161 160 158 152 149 147 145 144 143 142 136 131 131 129 124 118 115 116 114 113 108 104 105 103 101 100 98 98 101 106 114 117 114 113 114 112 107 103 99 96 93 87 81 75 69 65 62 60 58 56 56 55 53 52 49 47 45 43 39 32 26 23 15 13 16 16 10 3 358 357 357 353 349 349 343 338 339 333 329 326 320 317
161 160 160 159 157 156 153 149 147 146 145 145 144 138 134 132 128 125 119 117 119 116 115 112 108 108 107 104 105 106 106 108 114 120 120 118 117 115 111 108 105 98 93 92 88 82 75 69 65 61 59 57 55 54 53 50 49 47 43 41 40 38 33 27 23 17 10 10 11 8 3 360 358 356 353 350 348 344 341 341 339 332 327 324 321
162 159 159 156 155 154 151 148 148 148 147 147 145 139 135 133 129 126 122 122 123 120 119 117 112 111 110 109 113 119 120 120 120 120 119 118 118 114 109 107 104 102 97 90 84 81 74 67 63 61 59 56 53 52 50 48 47 43 37 33 32 32 28 23 20 15 10 9 8 7 4 0 358 355 352 350 346 345 345 346 345 339 330 326 323
161 159 158 155 154 153 151 150 150 151 149 146 144 141 138 137 134 129 127 128 126 122 125 124 118 118 119 120 121 123 126 125 124 123 122 121 119 113 110 106 101 98 95 89 84 80 76 68 61 58 56 54 51 49 47 45 44 40 33 27 26 25 20 18 17 12 10 11 8 7 5 0 358 354 349 348 348 349 349 347 344 340 333 327 325
161 160 158 156 155 153 152 152 152 152 150 146 144 144 141 139 138 136 134 134 130 129 133 131 128 129 130 128 127 127 128 128 126 126 124 122 119 114 111 107 100 94 89 88 84 77 72 67 60 57 54 51 48 46 44 42 41 40 35 26 22 21 16 14 14 10 10 11 7 6 4 358 356 354 350 349 350 349 348 344 339 336 331 326 324
163 161 158 157 156 155 154 153 153 153 151 148 148 148 145 142 144 142 139 139 137 136 138 136 135 135 134 133 132 131 130 129 129 128 125 123 120 115 110 103 99 95 88 85 83 77 69 62 58 55 51 48 46 43 40 38 37 38 38 31 22 22 18 12 14 12 9 9 7 6 3 357 356 356 353 351 349 348 346 343 339 335 330 325 322
163 160 157 157 156 157 155 152 153 155 153 152 154 152 146 147 149 145 142 142 141 140 139 136 135 135 135 134 133 132 130 129 128 126 124 123 119 115 111 105 99 95 89 82 79 78 71 60 54 50 47 44 42 40 36 35 32 32 38 35 24 22 18 11 16 14 8 8 7 5 1 357 356 356 353 350 348 346 345 343 340 336 330 325 321
164 160 159 159 158 158 156 154 156 157 155 155 156 154 150 151 150 145 143 144 142 141 138 135 134 135 135 136 135 134 132 129 128 126 124 123 119 115 111 108 103 96 88 79 74 71 65 58 52 47 43 38 37 37 33 32 29 26 34 34 19 16 16 11 14 13 7 8 6 4 1 357 357 356 351 348 347 344 344 343 341 336 331 326 322
166 165 162 161 162 161 158 158 159 157 156 155 155 156 154 153 149 144 146 145 142 141 139 137 138 138 138 138 136 133 131 129 128 127 125 123 119 115 109 106 101 94 87 79 73 67 59 54 49 44 41 35 33 32 29 30 28 23 32 35 16 12 17 11 10 11 8 6 4 2 360 356 355 352 348 346 343 341 341 341 340 337 332 328 324
168 168 165 163 165 164 160 160 159 156 156 156 158 161 158 153 149 145 145 144 141 141 139 138 140 140 140 138 135 132 130 128 127 126 125 123 118 114 109 104 97 91 85 81 78 73 63 55 47 42 39 34 32 31 26 25 24 21 29 35 17 10 16 10 6 10 6 2 2 360 356 354 353 349 346 343 339 340 342 341 340 337 334 330 325
169 168 166 165 165 163 159 158 158 158 158 158 160 162 158 152 147 144 143 141 139 139 138 138 139 138 136 134 131 130 128 127 126 125 123 121 117 112 107 101 96 91 86 83 83 80 71 59 49 42 39 35 32 31 27 24 24 23 29 38 22 9 13 10 6 9 5 359 359 357 354 354 351 348 344 338 337 343 346 344 342 341 338 334 328
169 166 165 165 163 162 160 159 161 161 161 161 161 159 154 150 146 143 142 141 139 138 137 137 135 132 130 128 126 125 125 125 124 123 121 119 116 111 105 101 97 91 87 84 82 79 73 62 50 43 40 37 33 32 30 28 31 32 38 46 32 10 11 11 7 8 3 358 356 355 357 355 351 350 345 337 340 345 346 346 347 347 343 337 330
169 167 167 166 164 164 163 162 163 163 162 162 160 156 152 148 146 145 143 141 140 138 137 136 133 130 129 128 125 124 124 122 121 121 120 117 113 109 106 102 95 89 85 83 81 79 75 65 49 42 41 38 34 34 32 31 36 38 45 53 37 10 12 10 6 7 3 357 356 357 358 355 352 351 344 339 342 345 346 348 349 347 342 338 333
171 169 168 166 165 165 164 163 163 163 163 164 160 155 151 148 148 147 144 143 142 140 138 136 133 131 130 128 127 126 124 123 122 121 119 116 113 110 105 99 93 88 83 79 79 78 77 74 55 41 40 39 36 36 35 33 37 40 47 54 36 12 14 11 5 6 3 359 358 359 358 355 354 351 346 344 346 347 349 351 349 345 341 340 337
171 169 167 165 164 164 163 162 163 163 163 163 159 152 149 148 148 146 145 144 143 141 139 137 134 133 131 129 129 128 126 124 123 121 119 117 113 107 101 95 90 86 81 76 75 74 74 77 68 41 37 38 37 36 35 35 38 42 46 46 29 12 13 11 6 6 5 1 359 359 357 354 353 353 352 352 352 352 354 353 347 344 343 344 342
170 168 167 166 164 163 163 163 164 164 162 161 157 151 149 149 148 147 146 145 144 142 141 139 136 134 132 131 131 130 128 126 124 122 121 117 112 106 102 98 92 87 82 77 72 69 69 72 75 51 34 35 36 35 35 36 37 42 47 39 22 13 12 8 6 7 5 1 356 356 355 352 352 354 356 359 0 359 358 353 346 345 346 348 349
171 168 166 165 164 164 163 163 164 163 162 161 157 152 149 149 148 148 147 146 145 144 142 140 138 136 135 135 134 132 129 126 124 122 121 117 111 106 102 99 94 88 83 79 73 69 65 64 68 63 36 31 34 34 33 35 34 38 45 38 17 12 14 7 5 6 5 358 349 351 352 348 347 348 351 1 6 3 359 351 346 347 348 349 350
171 168 166 165 165 164 163 163 163 163 162 161 157 151 149 149 149 148 147 147 147 145 143 142 140 138 138 137 136 135 131 128 125 124 122 118 112 109 104 99 96 91 84 78 72 68 63 58 58 60 48 30 31 32 30 32 32 31 39 38 19 10 13 8 4 4 4 357 346 346 347 342 340 342 347 358 5 3 359 353 347 350 353 352 351
171 168 166 165 165 163 163 163 162 163 162 159 154 150 150 150 149 149 148 148 148 146 145 144 142 141 141 139 138 137 132 130 129 126 122 118 114 111 107 102 97 93 88 81 75 66 60 54 49 51 51 36 29 29 26 27 28 26 31 35 22 10 11 9 4 1 1 357 347 345 343 335 335 342 351 359 2 359 358 355 349 352 356 355 352
171 168 165 165 164 163 162 161 162 163 162 156 152 151 150 150 149 150 149 149 149 148 147 146 144 143 141 139 139 137 135 134 133 128 123 119 116 113 107 102 96 92 90 87 84 74 61 55 45 42 45 40 31 27 24 23 23 22 26 30 23 14 10 5 1 357 356 354 349 346 339 330 333 345 355 1 0 356 357 355 348 348 351 352 352
169 168 165 164 164 163 163 164 164 164 159 154 152 152 151 151 151 150 151 151 150 149 148 146 145 144 142 142 142 139 138 138 134 128 123 119 118 114 109 108 104 100 101 95 86 77 62 55 45 33 35 36 30 25 21 21 20 18 20 25 22 15 12 8 2 355 352 350 348 346 338 330 337 349 355 357 357 354 355 354 348 347 348 348 350
169 167 165 164 165 165 165 166 166 163 157 154 153 153 152 152 152 153 153 152 151 149 148 147 146 146 145 144 144 142 140 139 135 129 126 123 119 114 109 108 106 101 101 94 82 73 55 45 41 27 22 24 24 20 17 18 18 18 19 21 19 14 11 11 3 352 348 344 342 344 338 334 342 350 352 353 354 352 351 350 347 347 347 348 349
169 168 166 165 165 165 165 166 165 161 157 155 155 154 153 154 154 155 154 152 151 150 149 148 147 147 146 147 148 147 142 139 135 130 127 126 122 119 116 113 108 97 91 88 80 74 60 42 38 29 15 13 13 13 15 17 16 17 20 21 20 14 8 5 358 349 345 340 339 340 337 338 344 350 352 353 353 350 348 347 345 346 348 349 349
168 168 166 165 165 166 166 166 164 160 158 158 157 155 155 156 156 155 154 152 152 151 149 148 148 148 151 154 154 149 143 139 136 132 128 126 121 120 120 117 112 99 86 83 75 67 60 46 40 34 23 17 7 3 9 15 15 16 19 20 20 14 5 3 4 352 340 335 335 337 339 342 348 352 353 352 350 348 347 345 345 347 349 349 347
166 168 168 167 166 166 167 165 162 160 159 159 159 157 156 157 157 156 155 153 152 152 150 149 150 151 154 157 154 149 144 141 138 135 133 133 129 124 120 114 113 110 97 89 74 60 54 42 36 30 21 24 16 0 2 9 13 16 18 19 18 10 0 2 8 353 338 337 340 342 345 347 350 352 353 349 346 347 347 345 346 348 349 348 346
168 170 170 169 167 166 165 163 160 159 160 160 161 159 158 158 157 156 156 154 152 153 152 151 153 154 155 155 152 149 147 145 143 140 139 139 137 134 130 118 111 105 95 90 74 57 50 37 31 26 14 14 14 4 0 5 12 16 17 18 17 8 1 5 7 354 347 353 356 354 351 348 347 350 350 347 346 348 348 347 347 349 350 349 347
170 171 169 167 165 163 162 160 158 160 160 160 162 161 159 159 159 158 157 156 155 154 153 153 155 155 155 155 154 154 156 154 150 148 150 149 145 142 140 132 124 116 101 90 75 54 45 34 24 21 15 8 5 359 358 4 12 15 15 18 16 9 7 10 6 358 1 7 6 1 354 347 347 349 349 347 349 350 349 349 350 350 351 350 349
172 171 168 165 163 160 159 158 158 159 161 160 162 162 160 159 159 158 158 158 158 156 154 155 158 158 157 160 162 163 164 161 156 157 159 157 152 149 143 133 126 122 108 88 73 52 40 34 21 12 11 12 3 354 354 2 11 13 14 16 14 10 12 15 10 5 9 13 10 1 351 348 350 350 349 350 351 351 351 352 352 351 351 350 349
172 169 166 164 162 161 159 158 158 160 162 162 162 162 162 161 160 160 160 160 160 158 156 158 160 160 161 166 171 170 168 164 163 163 161 156 157 156 152 158 163 154 149 137 94 61 36 29 24 10 8 14 2 348 352 1 9 12 12 13 12 12 16 23 22 13 10 12 8 356 348 351 353 351 351 353 353 353 353 353 352 352 352 350 348
170 167 165 163 162 162 159 159 160 161 162 162 162 164 164 163 162 162 161 162 162 160 159 161 163 164 167 172 176 176 172 170 170 166 163 171 174 162 152 181 206 190 171 168 158 143 124 65 42 4 360 16 0 345 353 5 10 11 11 10 12 15 19 25 25 17 10 8 3 353 349 353 354 352 353 354 354 354 354 353 353 353 352 352 350
167 165 165 164 163 162 159 159 160 160 162 162 163 165 166 164 164 163 163 164 165 161 161 165 167 169 174 175 177 180 177 175 176 170 171 188 191 181 175 190 218 207 180 176 175 177 171 98 95 2 343 11 5 353 0 8 10 12 11 9 12 19 24 24 20 14 10 6 356 349 350 353 353 352 353 353 353 354 354 354 354 354 353 352 352
167 165 165 164 163 161 159 158 159 161 163 164 163 165 167 166 165 165 166 170 168 162 164 171 173 176 181 178 177 181 179 177 179 176 175 185 189 186 190 202 216 199 192 189 158 127 25 46 73 2 348 8 11 5 6 8 8 11 11 10 14 21 25 24 16 10 9 4 353 348 350 351 352 352 352 352 352 353 354 355 354 354 354 353 352